#timestamp,LO_Frequency,Hit,StdDev 
1596805215.1,286047002.8,N
1596805216.0,286047002.8,N
1596805235.8,286046998.5,N
1596805255.7,286046998.5,N
1596805275.5,286047001.2,N
1596805295.4,286046998.2,N
1596805315.2,286046998.8,N
1596805335.0,286046999.6,N
1596805335.9,286046999.6,N
1596805355.8,286046999.3,N
1596805375.6,286046999.6,N
1596805395.5,286046998.6,N
1596805415.3,286046999.9,N
1596805435.1,286047002.7,N
1596805455.9,286047001.5,N
1596805475.7,286047002.0,N
1596805495.5,286047000.1,N
1596805515.4,286047002.6,N
1596805535.2,286047002.2,N
1596805555.1,286047001.9,N
1596805556.0,286047001.9,N
1596805575.8,286047002.5,N
1596805595.6,286047003.9,N
1596805615.5,286047004.3,N
1596805635.3,286047003.6,N
1596805655.2,286047003.4,N
1596805675.0,286047003.9,N
1596805675.9,286047003.9,N
1596805695.8,286047003.1,N
1596805715.6,286047003.5,N
1596805735.4,286047003.5,N
1596805755.3,286047003.9,N
1596805775.1,286047003.6,N
1596805795.8,286047003.1,N
1596805815.7,286047003.1,N
1596805835.5,286047003.4,N
1596805855.7,286047004.3,N
1596805875.5,286047002.2,N
1596805895.3,286047001.6,N
1596805915.2,286047004.2,N
1596805935.0,286047003.6,N
1596805935.9,286047003.6,N
1596805955.8,286047007.5,Y
1596805975.6,286047001.3,P
1596805995.4,286047001.5,N
1596806015.3,286047002.0,N
1596806035.1,286047000.1,N
1596806055.9,286047000.8,N
1596806075.7,286047000.8,N
1596806095.5,286047000.7,N
1596806115.4,286047000.4,N
1596806135.2,286047000.2,N
1596806155.0,286047002.1,N
1596806155.9,286047002.1,N
1596806175.8,286047001.5,N
1596806195.6,286047002.4,N
1596806215.5,286047000.4,N
1596806235.3,286047000.7,N
1596806255.1,286046998.5,N
1596806275.9,286047000.4,N
1596806295.7,286047000.5,N
1596806315.5,286047000.7,N
1596806335.4,286047000.8,N
1596806355.2,286047000.0,N
1596806375.1,286047001.0,N
1596806376.0,286047001.0,N
1596806395.8,286047000.8,N
1596806415.6,286047000.8,N
1596806435.5,286047000.8,N
1596806455.3,286047000.8,N
1596806475.2,286046998.9,N
1596806495.9,286046998.2,N
1596806515.7,286046998.7,N
1596806535.6,286046999.0,N
1596806555.4,286046998.4,N
1596806575.2,286046999.0,N
1596806595.1,286046999.4,N
1596806596.0,286046999.4,N
1596806615.8,286046999.4,N
1596806635.7,286046998.8,N
1596806655.5,286046998.3,N
1596806675.3,286046998.6,N
1596806695.2,286047000.6,N
1596806715.0,286047000.8,N
1596806715.9,286047000.8,N
1596806735.8,286046998.1,N
1596806755.6,286047001.0,N
1596806775.4,286047000.8,N
1596806795.3,286047001.0,N
1596806815.1,286047000.8,N
1596806835.9,286047000.8,N
1596806855.7,286047000.4,N
1596806875.5,286047000.7,N
1596806895.4,286046998.9,N
1596806915.2,286046998.2,N
1596806935.1,286047000.7,N
1596806936.0,286047000.7,N
1596806955.8,286047002.8,N
1596806975.6,286047000.5,N
1596806995.5,286047000.0,N
1596807015.3,286047001.0,N
1596807035.1,286046999.9,N
1596807055.9,286047001.1,N
1596807075.7,286047000.8,N
1596807095.6,286047001.1,N
1596807115.4,286046999.7,N
1596807135.3,286047002.4,N
1596807155.1,286047002.1,N
1596807156.0,286047002.1,N
1596807175.8,286047002.6,N
1596807195.7,286047002.8,N
1596807215.5,286047000.5,N
1596807235.3,286047002.8,N
1596807255.2,286047000.2,N
1596807275.0,286047000.9,N
1596807275.9,286047000.9,N
1596807295.8,286047000.7,N
1596807315.6,286046998.5,N
1596807335.5,286046998.9,N
1596807355.3,286046999.1,N
1596807375.1,286046999.0,N
1596807395.9,286046997.8,N
1596807415.7,286046995.9,N
1596807435.6,286046992.2,Y
1596807455.4,286046990.3,P
1596807475.2,286046990.2,N
1596807495.1,286046990.8,N
1596807496.0,286046986.3,Y
1596807515.8,286046998.3,P
1596807535.7,286047000.5,N
1596807555.5,286046999.3,N
1596807575.3,286046998.5,N
1596807595.2,286047001.1,N
1596807615.9,286046997.4,N
1596807635.7,286046997.1,N
1596807655.6,286046995.3,N
1596807675.4,286046995.8,N
1596807695.3,286046995.0,N
1596807715.1,286046997.7,N
1596807716.0,286046997.7,N
1596807735.8,286046997.4,N
1596807755.7,286046997.4,N
1596807775.5,286046999.1,N
1596807795.3,286046999.4,N
1596807815.2,286046999.2,N
1596807835.0,286046999.2,N
1596807835.9,286046999.2,N
1596807855.8,286046996.6,N
1596807875.6,286046997.0,N
1596807895.4,286046996.6,N
1596807915.3,286046999.2,N
1596807935.1,286046998.7,N
1596807955.9,286046999.4,N
1596807975.7,286046999.6,N
1596807995.5,286046999.4,N
1596808015.4,286046999.1,N
1596808035.2,286046999.3,N
1596808055.0,286046999.6,N
1596808055.9,286046999.6,N
1596808075.8,286046998.8,N
1596808095.6,286046999.2,N
1596808115.5,286046996.8,N
1596808135.3,286046999.0,N
1596808155.1,286047000.5,N
1596808175.9,286046999.0,N
1596808195.7,286046999.1,N
1596808215.5,286046998.5,N
1596808235.4,286047000.8,N
1596808255.2,286046998.6,N
1596808275.1,286046999.5,N
1596808276.0,286046999.5,N
1596808295.8,286046999.4,N
1596808315.6,286046996.7,Y
1596808335.5,286047001.0,P
1596808355.3,286046999.7,N
1596808375.2,286047002.7,P
1596808395.9,286047002.4,N
1596808415.7,286047002.4,N
1596808435.6,286047000.1,N
1596808455.4,286047002.8,N
1596808475.2,286046999.8,N
1596808495.1,286046999.9,N
1596808496.0,286046999.9,N
1596808515.8,286047002.6,N
1596808535.7,286047004.0,N
1596808555.5,286047003.9,N
1596808575.3,286047003.7,N
1596808595.2,286047003.9,N
1596808615.0,286047003.9,N
1596808615.9,286047003.9,N
1596808635.8,286047001.4,N
1596808655.6,286047001.3,N
1596808675.4,286047001.8,N
1596808695.3,286047002.6,N
1596808715.1,286047002.6,N
1596808735.9,286047000.1,N
1596808755.7,286047001.6,N
1596808775.5,286047004.0,N
1596808795.4,286047001.8,N
